Terminal Aerodrome Forecast
Issued by NWS

Home | Current Version | Previous Version | Text Only | Print | Product List | Glossary Off
Versions: 1 2 3 4 5 6 7 8 9 10 11 12 13 14 15 16 17 18 19 20 21 22 23 24 25 26 27 28 29 30 31 32 33 34

000
FTUS45 KGGW 111100
TAFGDV
TAF
KGDV 111120Z 1112/1212 04007KT P6SM -SHRA SCT090
      TEMPO 1112/1116 5SM -TSRA SCT060CB
     FM111800 34010KT P6SM SCT200
     FM120300 VRB04KT P6SM SCT250
      AMD LTD TO CLD VIS AND WIND=

USA.gov is the U.S. government's official web portal to all federal, state and local government web resources and services.